Regional Weather Roundup
Issued by NWS

Home | Current Version | Previous Version | Graphics & Text | Print | Product List | Glossary On
Versions: 1 2 3 4 5 6 7 8 9 10 11 12 13 14 15 16 17 18 19 20 21 22 23 24 25 26 27 28 29 30 31 32 33 34 35 36 37 38 39 40 41 42 43 44 45 46 47 48 49 50
000
ASUS43 KIND 251109
RWRIN

WEATHER ROUNDUP FOR INDIANA
NATIONAL WEATHER SERVICE INDIANAPOLIS IN
700 AM EDT THU MAY 25 2017

NOTE: "FAIR" INDICATES FEW OR NO CLOUDS BELOW 12,000 FEET WITH NO
SIGNIFICANT WEATHER AND/OR OBSTRUCTIONS TO VISIBILITY.

* - STATION DOES NOT REPORT WEATHER SUCH AS PRECIPITATION OR FOG.

+ - STATION NOT QUALITY CONTROLLED BY THE NATIONAL WEATHER SERVICE.
    USE DATA WITH CAUTION...ESPECIALLY DEWPOINT AND RELATIVE
    HUMIDITY OBSERVATIONS.

INZ001>003-010>013-019-020-251200-
NORTHWEST INDIANA

CITY           SKY/WX    TMP DP  RH WIND       PRES   REMARKS
GARY /AIRPORT/ CLOUDY    52  50  93 NW17G29   29.56R
KNOX *+        CLOUDY    52  52 100 NW15      29.49R
LA PORTE +     CLOUDY    54  53  97 N12       29.51R FOG
MICHIGAN CITY+ CLOUDY    50  50 100 NW9       29.53R
MONTICELLO +   CLOUDY    53  51  95 NW15G21   29.47R FOG
RENSSELAER +   CLOUDY    54  50  87 NW9G16    29.51R
VALPARAISO     CLOUDY    52  51  97 N8        29.52R FOG

$$

LMZ046-743>745-251200-
SOUTHERN LAKE MICHIGAN

STATION/POSITION TIME  TEMP    WIND        PRES    WAVE
                       AIR SEA DIR/SP/G            HT
                 (UTC) (F)     (DEG/KT/KT) (MB)    (FT)
BURNS HARBOR     1040   50     340/ 19/ 23 1000.3R
MICHIGAN CITY    1040   49     330/ 23/ 25   N/A
5NW MICH CITY    1100   49 52  350/ 17/ 21   N/A     6

$$

INZ004-005-014>016-021>024-251200-
NORTH CENTRAL INDIANA

CITY           SKY/WX    TMP DP  RH WIND       PRES   REMARKS
ELKHART        CLOUDY    57  55  94 N5        29.47
GOSHEN         CLOUDY    58  54  86 N15       29.46R
LOGANSPORT +   CLOUDY    55  55 100 NW8       29.46R FOG
PERU/GRISSOM   LGT RAIN  59  59 100 N14       29.42R
ROCHESTER +    CLOUDY   N/A N/A N/A N9        29.45R HAZE
SOUTH BEND     CLOUDY    56  56 100 N12       29.49R
WARSAW +       RAIN      57  55  94 N13G20    29.45R

$$

INZ006>009-017-018-025>027-251200-
NORTHEAST INDIANA

CITY           SKY/WX    TMP DP  RH WIND       PRES   REMARKS
ANGOLA *+      CLOUDY    57  46  67 N6        29.44R
AUBURN +       CLOUDY    59  55  88 NE7       29.43R FOG
FORT WAYNE     LGT RAIN  60  58  92 N12       29.40R FOG
HUNTINGTON +   CLOUDY    59  57  96 N7        29.40R FOG
KENDALLVILLE + RAIN      58  58 100 N7        29.44R

$$

INZ028-029-035-036-043>045-051>053-251200-
WEST CENTRAL INDIANA

CITY           SKY/WX    TMP DP  RH WIND       PRES   REMARKS
CRAWFORDSVL +  DRIZZLE   52  52 100 NW14G24   29.49R
GREENCASTLE +  CLOUDY    54  54 100 NW8       29.48R FOG
LAFAYETTE      CLOUDY    53  53 100 NW13G21   29.48R FOG
TERRE HAUTE    CLOUDY    57  53  86 NW13G20   29.52R

$$

INZ030>032-037>040-046>048-054>057-064-065-251200-
CENTRAL INDIANA

CITY           SKY/WX    TMP DP  RH WIND       PRES   REMARKS
CP ATTERBURY + CLOUDY    55  54  94 W13G18    29.43R
FRANKFORT +    DRIZZLE   56  55  95 NW14G20   29.48R
GREENWOOD *+   CLOUDY    56  55  94 NW8G20    29.43R
INDIANAPOLIS   CLOUDY    56  54  93 NW15      29.44R FOG
-EAGLE CREEK   LGT RAIN  56  54  93 NW15G23   29.43R FOG
KOKOMO +       LGT RAIN  59  57  93 NW14      29.43R
MT COMFORT *+  CLOUDY    55  55 100 NW13      29.41R
SHELBYVILLE    CLOUDY    58  54  86 NW15      29.39R FOG
ZIONSVILLE +   DRIZZLE   54  53  97 NW16      29.44R

$$

INZ033-034-041-042-049-050-058-059-251200-
EAST CENTRAL INDIANA

CITY           SKY/WX    TMP DP  RH WIND       PRES   REMARKS
MUNCIE         LGT RAIN  59  57  93 NW3       29.38R FOG
RICHMOND +     CLOUDY    55  54  94 CALM      29.38R

$$

INZ060-061-067>069-081>083-085>088-251200-
SOUTHWEST INDIANA

CITY           SKY/WX    TMP DP  RH WIND       PRES   REMARKS
EVANSVILLE     CLOUDY    59  54  83 W9G18     29.57R
HUNTINGBURG *+ CLOUDY    58  56  93 W12G20    29.54R
WASHINGTON +   LGT RAIN  58  55  88 W9        29.53R

$$

INZ062-063-066-070>080-084-089>092-251200-
SOUTH CENTRAL AND SOUTHEAST INDIANA

CITY           SKY/WX    TMP DP  RH WIND       PRES   REMARKS
BEDFORD +      LGT RAIN  55  54  94 W12G20    29.47R
BLOOMINGTON    CLOUDY    56  53  90 W14       29.47R
MADISON *+     CLOUDY    55  54  94 SW12      29.45S
NORTH VERNON + RAIN      55  54  94 W10G17    29.43R
SEYMOUR +      DRIZZLE   59  57  94 W16       29.43S

$$





USA.gov is the U.S. government's official web portal to all federal, state and local government web resources and services.